{"data":{"norad_id":55938,"epoch":"2026-05-25T03:44:48.121728Z","epoch_age_seconds":68411,"freshness":"FRESH","line1":"1 55938U 23037AA  26145.15611252 -.00002229  00000+0 -17911-3 0  9994","line2":"2 55938  70.0000  91.6799 0003372 272.2191  87.8582 14.98322369175434","mean_motion":14.98322369,"eccentricity":0.0003372,"inclination_deg":70,"raan_deg":91.6799,"arg_perigee_deg":272.2191,"mean_anomaly_deg":87.8582,"bstar":-0.00017911,"rev_number":17543,"period_min":96.107488601473,"perigee_km":569.7358762824,"apogee_km":574.42310228277,"semimajor_km":6950.2164892826,"source":"CELESTRAK","updated_at":"2026-05-25T13:38:17.915356Z"}}